KUIPER-00222

导读 | 豆包AI

KUIPER-00222是亚马逊柯伊伯(Project Kuiper)低轨卫星互联网星座组网卫星,于2026年2月12日在法国通过阿丽亚娜6号火箭发射升空。作为亚马逊全球卫星互联网布局的组成部分,该卫星旨在和星座内数千颗卫星一同,为全球提供高速低延迟的宽带互联网接入,重点覆盖偏远区域等网络服务欠发达地区,推动全球网络普及。

Basic Information
目录编号:
67782
目录名称:
KUIPER-00222
国际标识:
2026-030U
轨道中心:
EARTH
卫星名称:
KUIPER-00222
卫星全名:
KUIPER-00222
卫星状态:
在轨 (已飞行30 天)
发射日期:
2026-02-12 UTC
国别 :
美国 (US)
星等 :
--
Orbit Information
数据来源 国际轨道数据
星历时间: 2026-03-14T09:06:47+0800
15小时前
查看轨道信息
半长轴: 6847.3km
偏心率: 0.0017413
轨道倾角: 51.881°
近地点辐角 80.845°
升交点赤经 198.752°
平近点角 279.450°
近地点: 457.239km
远地点: 481.087km
周期: 93.981分钟
每日圈数: 15.322295
Detailed Information
使用方式:
暂无
2D Orbit Map
3D Orbit Map
Orbit Altitude Analysis Chart
Orbit Inclination Analysis Chart
Orbit Comprehensive Analysis Chart
View Comprehensive Chart